Regional Weather Roundup
Issued by NWS San Diego, CA

Current Version | Previous Version | Text Only | Print | Product List | Glossary On
Versions: 1 2 3 4 5 6 7 8 9 10 11 12 13 14 15 16 17 18 19 20 21 22 23 24 25 26 27 28 29 30 31 32 33 34 35 36 37 38 39 40 41 42 43 44 45 46 47 48 49 50
904
ASUS46 KSGX 210311
RWRSGX

SAN DIEGO HOURLY WEATHER ROUNDUP
NATIONAL WEATHER SERVICE SAN DIEGO CA
800 PM PDT SAT JUL 20 2019

NOTE: "FAIR" INDICATES FEW OR NO CLOUDS BELOW 12,000 FEET WITH NO
SIGNIFICANT WEATHER AND/OR OBSTRUCTIONS TO VISIBILITY.

CAZ042-043-060-061-PZZ750-775-210400-

GREATER SAN DIEGO AREA

CITY           SKY/WX    TMP DP  RH WIND       PRES   REMARKS
SAN DIEGO AP   PTCLDY    68  62  81 NW8       29.89S
NATIONAL CITY    N/A     71 -22   2 CALM      29.88S
CHULA VISTA      N/A     70  64  80 W2        29.79R
BROWN FIELD    CLEAR     64  60  87 W8        29.88S
MIRAMAR MCAS   CLEAR     69  60  73 NW8       29.88S
MONTGOMERY FLD CLEAR     67  60  78 NW9       29.89R
GILLESPIE FLD  CLEAR     70  59  68 W10       29.88R

$$

NORTH SAN DIEGO COUNTY

CITY           SKY/WX    TMP DP  RH WIND       PRES   REMARKS
CAMP PENDLETON PTCLDY    68  62  81 SW5       29.87R
OCEANSIDE AP   CLEAR     67  60  78 W3        29.87R
OCEANSIDE HBR    N/A     68  64  85 W3        29.89S
VISTA            N/A     69  62  79 SW2       29.85R
CARLSBAD       MOCLDY    69  62  78 W6        29.87S
DEL MAR          N/A     68  63  84 CALM      29.89S
LA JOLLA SCRIP   N/A     66  62  85 W2        29.88R
FALLBROOK      FAIR      66  61  82 S3        29.89R
ESCONDIDO        N/A     72  61  69 W3        29.87R
SAN MARCOS       N/A     69  62  78 NW3       29.91R
POWAY            N/A     69  60  73 CALM      29.88R

$$

EAST SAN DIEGO COUNTY

CITY           SKY/WX    TMP DP  RH WIND       PRES   REMARKS
RAMONA         CLEAR     70  55  59 W7        29.90R
SANTEE LAKES     N/A     69  61  76 W6        29.84R
LA MESA          N/A     68  60  75 CALM      29.82R
JAMUL            N/A     71  60  67 CALM      29.87R
DESCANSO N       N/A     70  56  60 CALM      29.77S
CAMPO            N/A     72  55  55 SW6       29.90R

$$

ORANGE COUNTY AND THE LOS ANGELES BASIN

CITY           SKY/WX    TMP DP  RH WIND       PRES   REMARKS
JOHN WAYNE AP  PTCLDY    70  58  65 VRB3      29.87S
LAGUNA BEACH     N/A     69  62  79 N2        29.86S
LAKE FOREST FR   N/A     70  57  64 W3        29.75S
HUNTINGTON BCH   N/A     67  63  86 W6        29.87S
LOS ALAMITOS   FAIR      69  56  63 W8        29.87R
FULLERTON      PTCLDY    72  57  59 W9        29.86R
LONG BEACH     CLEAR     70  58  65 NW13      29.87S
L.A. AP        PTCLDY    66  58  75 W14       29.88S
L.A. DOWNTOWN  CLEAR     70  59  68 VRB6      29.87S

$$

THE INLAND EMPIRE

CITY           SKY/WX    TMP DP  RH WIND       PRES   REMARKS
CORONA         CLEAR     74  60  61 MISG      29.86R
CHINO          CLEAR     74  60  61 SW12      29.87R
ONTARIO        PTCLDY    81  59  47 W13       29.86S
RIVERSIDE AP   CLEAR     75  57  53 W12       29.86R
MORENO VALLEY    N/A     78  61  56 NW6       27.98S
MARCH ARB      CLEAR     75  55  49 NW9       29.89R
HORSETHIEF CYN   N/A     76  54  45 NE5       29.84R
PERRIS           N/A     78  59  51 W6        29.86R
HEMET EAST       N/A     80  49  33 W2        29.87S
FRENCH VALLEY  FAIR      75  55  50 S9        29.89S
TEMECULA         N/A     79  56  44 SW2       29.82R

$$

SAN BERNARDINO AND RIVERSIDE COUNTY MOUNTAINS

CITY           SKY/WX    TMP DP  RH WIND       PRES   REMARKS
BIG BEAR AP    CLEAR     64  36  34 W7        30.17S

$$

SOUTHERN DESERT INCLUDING THE COACHELLA VALLEY

CITY           SKY/WX    TMP DP  RH WIND       PRES   REMARKS
PALM SPRINGS   CLEAR     97  51  21 NW18      29.71S
PALM DESERT      N/A     99  54  22 CALM      31.03S HX  96
THERMAL        CLEAR    100  45  15 NW9       29.64R HX  96
BORREGO AP     FAIR      97  46  17 NW8G15    29.71R
BLYTHE         CLEAR    104  32   8 SW12      29.68S HX  97
IMPERIAL AP    CLEAR    102  60  25 S10       29.65R HX 103
EL CENTRO NAS  CLEAR    103  34   9 SW9G20    29.68R HX  96
YUMA AZ        CLEAR    100  63  29 SW13      29.69R HX 102
MEXICALI       CLEAR     97  59  28 SE8       29.68R HX  96

$$

UPPER DESERT

CITY           SKY/WX    TMP DP  RH WIND       PRES   REMARKS
VICTORVILLE AP CLEAR    N/A N/A N/A S15       29.90R
HESPERIA         N/A     78  50  37 W7        29.77S
APPLE VALLEY     N/A     80  50  35 N6        29.77S
PALMDALE       CLEAR     82  46  28 SW16      29.88R
LANCASTER      CLEAR     79  51  37 W18       29.88R
EDWARDS AFB    CLEAR     83  45  26 SW18      29.83R
DAGGETT        NOT AVBL
29 PALMS N     CLEAR     93  34  12 SW15        N/A
NEEDLES        CLEAR    105  28   7 W7        29.69S HX  98

$$

REGIONAL REPORTS

CITY           SKY/WX    TMP DP  RH WIND       PRES   REMARKS
SANTA BARBARA  CLEAR     62  57  83 W13       29.88S
SANDBERG         N/A     69  44  40 S9        30.05R
LAS VEGAS NV   CLEAR     99  29   8 SW8       29.76R
PHOENIX AZ     PTCLDY   104  39  10 W13       29.72R HX  98
TIJUANA        CLEAR     66  61  82 W7        29.91R
ENSENADA NW      N/A     65  32  29 CALM      29.84R

$$

OFFSHORE ISLANDS

CITY           SKY/WX    TMP DP  RH WIND       PRES   REMARKS
CATALINA ARPT  CLOUDY    58  57  97 SW12      29.92R
SAN CLEMENTE I CLOUDY    62 N/A N/A MISG      29.91S
SAN NICOLAS IS CLOUDY   N/A N/A N/A W15       29.90F

$$

MARINE AND OFFSHORE BUOY REPORTS

STATION/POSITION SKY/WX   TEMP    WIND        PRES    VSBY  SWELL
                          AIR SEA DIR/SP/G                  HT/PER/DIR
                          (F)     (DEG/KT/KT) (MB)    (MI)  (FT/S/D)
TANNER BANKS               62 63  310/ 14/ 17 1012.9S         5/310/10
S CLEMENTE BASIN           63 63  300/ 16/ 19 1012.1R         3/280/ 9
SAN NICOLAS IS.               62                N/A           2/200/14
SO. S. ROSA ISLA           61 63  310/ 12/ 16 1013.2F         3/310/ 9
W. S. BARBARA CH                                N/A
M. S. BARBARA CH           62 62  280/ 14/ 17 1012.5F         3/250/ 9
S. MONICA BASIN            64 68  280/ 12/ 14 1012.2F         2/230/10
S PEDRO CHANNEL               69                N/A
CMP PENDLETON NS              72                N/A           2/210/14
OCEANSIDE OFFSHR              71                N/A           2/200/14
TORREY PINES OTR              66                N/A           2/200/14
SAN DIEGO BAY                                 1011.3R
IMPERIAL BEACH                67                N/A           2/240/13
POINT LOMA SOUTH              65                N/A           2/190/13

$$





USA.gov is the U.S. government's official web portal to all federal, state and local government web resources and services.